sat.trackr.live / text

‹ back to catalog

STAR VIBE

NORAD 55009 · 2023-001A

PAYLOAD ACTIVE UNKNOWN

§ Identity

Operator
Country
POL
Launch date
2023-01-03
Launch site
AFETR
Launch vehicle
Mass (kg)
RCS (m²)

External: N2YO · Heavens-Above · Gunter

§ Orbital elements

Epoch: 2026-09-21T22:35:06.501408Z

Period
93.20 min
Inclination
97.3073°
Eccentricity
0.0006714
Mean motion
15.44990780 rev/d
Perigee alt
426.8 km
Apogee alt
436.0 km
Semi-major
6,809.5 km
B*
2.3386e-4
RAAN
329.9068°
Arg perigee
117.3661°
Mean anomaly
242.8272°
Rev number
20,715

§ Raw data

STAR VIBE1 55009U 23001A   26264.94104747  .00010944  00000+0  23386-3 0  99932 55009  97.3073 329.9068 0006714 117.3661 242.8272 15.44990780207159

JSON: /api/v1/satellites/55009 · /tle

For live sub-satellite position, see the globe view (requires WebGL).

§ Visibility from observer

Set your observer location to see the next 7 days of passes ≥ 10°. The values pass through the URL so the page stays shareable.

No JS? Fill the form by hand. The geolocation button needs JavaScript.

§ Radio — SatNOGS DB

ModeDescriptionDownlinkUplink
GMSK Mode U - GMSK 4k8 AX.25 437.025 MHz

1 transmitter · refreshed weekly from db.satnogs.org